Location: Ellerstadt
(49.4644°N, 8.2615°E)
Time: 05:15:07
(UTC+00:00)

COSMOS 2428 - Pass Details

Date: 03 March 2021
Orbit: 846 x 857 km, 70.9° (Epoch: 11 April)

Event Time Altitude Azimuth Distance (km) Brightness Sun altitude
Rises 21:01:52 0° 235° (SW) 3,399 6.0 -35.9°
Reaches altitude 10° 21:04:30 10° 244° (WSW) 2,468 5.3 -36.2°
Enters shadow 21:07:11 25° 264° (W) 1,657 4.5 -36.5°
Exits shadow 21:13:54 15° 12° (NNE) 2,137 5.0 -37.4°
Drops below altitude 10° 21:14:58 10° 18° (NNE) 2,486 5.3 -37.5°
Sets 21:17:38 0° 27° (NNE) 3,427 6.0 -37.8°
